Regional Weather Roundup
Issued by NWS Sterling, VA

Home | Current Version | Previous Version | Text Only | Print | Product List | Glossary Off
Versions: 1 2 3 4 5 6 7 8 9 10 11 12 13 14 15 16 17 18 19 20 21 22 23 24 25 26 27 28 29 30 31 32 33 34 35 36 37 38 39 40 41 42 43 44 45 46 47 48 49 50

000
ASUS41 KLWX 271710
RWRLWX

REGIONAL WEATHER ROUNDUP
NATIONAL WEATHER SERVICE BALTIMORE MD/WASHINGTON DC
100 PM EDT SUN JUL 27 2014

Note: "FAIR" indicates few or no clouds below 12,000 feet
with no significant weather and/or obstructions to visibility.
 TC=TEMPERATURE CELSIUS

 * =Non NWS site. Station does not report precipitation (e.g. rain,
    snow, etc.), thunder, or fog.

DCZ001-MDZ009-015-VAZ040>042-051-053>054-271800-
WASHINGTON METRO
  /KDAA//-FT BELVOIR

CITY           SKY/WX    TMP DP  RH WIND       PRES   REMARKS
WASHINGTON NAT PTSUNNY   82  69  64 S12       29.81F
DULLES         PTSUNNY   81  70  69 S14       29.81F
ANDREWS AFB    PTSUNNY   79  70  74 SW12G22   29.81F
QUANTICO       CLOUDY    74  68  81 SW8       29.83F
COLLEGE PARK*  PTSUNNY   82  70  65 S9        29.80S
MANASSAS*      SUNNY     79  72  78 SW9G18    29.82F
GAITHERSBURG*  MOSUNNY   82  72  69 W9        29.84S

$$

MDZ006>007-011-014-271800-
BALTIMORE METRO

CITY           SKY/WX    TMP DP  RH WIND       PRES   REMARKS
BWI AIRPORT    PTSUNNY   85  68  56 SW13      29.77F
MD SCIENCE CTR   N/A     88  69  53 MISG      29.76F HX  92
MARTIN STATE   MOSUNNY   86  72  62 SW8       29.78F HX  92
ANNAPOLIS      PTSUNNY   83  69  62 SW12      29.78F

$$

MDZ012-015-019>023-271800-
MARYLAND EASTERN SHORE

CITY           SKY/WX    TMP DP  RH WIND       PRES   REMARKS
OCEAN CITY     CLOUDY    79  70  74 SW8       29.82R
SALISBURY      NOT AVBL
BAY BRIDGE AP*   N/A     81  68  65 SW7       29.80R
CAMBRIDGE*     CLOUDY    79  68  69 SW8       29.81R
EASTON*        CLOUDY    81  72  74 SW10      29.85R

$$

MDZ017>025-271800-
SOUTHERN MARYLAND

CITY           SKY/WX    TMP DP  RH WIND       PRES   REMARKS
PATUXENT RIVER CLOUDY    76  70  82 SW14G22   29.83S
ST INIGOES     CLOUDY    77  68  73 SW12      29.83S
LEONARDTOWN*   CLOUDY    73  68  83 SW10      29.85R

$$

MDZ003>005-271800-
NORTH CENTRAL MARYLAND

CITY           SKY/WX    TMP DP  RH WIND       PRES   REMARKS
FREDERICK*     PTSUNNY   84  72  65 CALM      29.81F
HAGERSTOWN APT PTSUNNY   85  68  56 W10       29.79F
WESTMINSTER*   MOSUNNY   82  75  78 W13G18    29.80F

$$

MDZ501>502-271800-
WESTERN MARYLAND

CITY           SKY/WX    TMP DP  RH WIND       PRES   REMARKS
OAKLAND*       PTSUNNY   72  68  88 W8        29.93F
CUMBERLAND*    PTSUNNY   86  68  54 W8        29.84F

$$

VAZ025>031-271800-
SHENANDOAH VALLEY

CITY           SKY/WX    TMP DP  RH WIND       PRES   REMARKS
WINCHESTER*    NOT AVBL
STAUNTON*      NOT AVBL

$$

WVZ021-048>050-054>055-271800-
EASTERN WEST VIRGINIA PANHANDLE

CITY           SKY/WX    TMP DP  RH WIND       PRES   REMARKS
MARTINSBURG    PTSUNNY   83  69  62 SW8       29.80F
PETERSBURG*    CLOUDY    78  60  52 S8        29.85S

$$

VAZ036>039-050-271800-
CENTRAL FOOTHILLS

CITY           SKY/WX    TMP DP  RH WIND       PRES   REMARKS
CHARLOTTESVILL CLOUDY    78  69  73 SW8       29.86F
ORANGE*        NOT AVBL

$$

VAZ055>057-271800-
NORTH AND CENTRAL PIEDMONT

CITY           SKY/WX    TMP DP  RH WIND       PRES   REMARKS
FREDERICKSBRG* NOT AVBL
STAFFORD*      NOT AVBL

$$

NCZ024-NYZ072-PAZ021-071-VAZ022-071-271800-
OTHER REGIONAL OBSERVATIONS

CITY           SKY/WX    TMP DP  RH WIND       PRES   REMARKS
NEW YORK CITY  CLOUDY    79  68  69 VRB6      29.77F
PHILADELPHIA   MOSUNNY   85  66  53 SW10      29.75F
PITTSBURGH     PTSUNNY   79  69  71 SW8       29.80F
ROANOKE        CLOUDY    76  68  76 W6        29.96F
RICHMOND       CLOUDY    77  70  79 SW10      29.88R
RALEIGH        CLOUDY    76  70  82 CALM      29.97R

$$

ANZ530>537-271800-
MARINE OBSERVATIONS

STATION/POSITION TIME  TEMP    WIND        PRES
                       AIR SEA DIR/SP/G
                 (UTC) (F)     (DEG/KT/KT) (MB)
THOMAS PT LIGHT  1700   78 79  230/ 13/ 16 1009.6R
BALT KEY BRIDGE  1700   81     240/  6/  8 1008.1S
COVE POINT       1700   75     260/ 12/ 15 1009.9R
LEWISETTA        1700   75 80  250/ 10/ 13 1010.2S
SOLOMONS ISLAND  1700      80                N/A
PINEY POINT      1700          260/  7/ 11   N/A

$$



USA.gov is the U.S. government's official web portal to all federal, state and local government web resources and services.